Regional Weather Roundup
Issued by NWS

Home | Current Version | Previous Version | Graphics & Text | Print | Product List | Glossary On
Versions: 1 2 3 4 5 6 7 8 9 10 11 12 13 14 15 16 17 18 19 20 21 22 23 24 25 26 27 28 29 30 31 32 33 34 35 36 37 38 39 40 41 42 43 44 45 46 47 48 49 50
000
ASUS45 KBOI 231110
RWRID

IDAHO REGIONAL WEATHER ROUNDUP
NATIONAL WEATHER SERVICE BOISE ID
400 AM MST MON JAN 23 2017

NOTE: "FAIR" INDICATES FEW OR NO CLOUDS BELOW 12000 FEET
WITH NO SIGNIFICANT WEATHER AND/OR OBSTRUCTIONS TO VISIBILITY

IDZ012-014-231200-
SOUTHWEST IDAHO


CITY           SKY/WX    TMP DP  RH WIND       PRES   REMARKS
BOISE          CLOUDY    28  26  92 CALM      29.60F
CALDWELL       FOG       27  26  96 CALM      29.61F VSB 1/2
MOUNTAIN HOME  CLOUDY    32  32 100 N9        29.57S WCI  24
$$

IDZ016-017-231200-
SOUTHCENTRAL IDAHO


CITY           SKY/WX    TMP DP  RH WIND       PRES   REMARKS
BURLEY         CLOUDY    30  27  88 NW3       29.51F
JEROME         CLOUDY    30  29  96 NE20      29.52F WCI  17
TWIN FALLS     CLOUDY    32  29  88 CALM      29.51F
$$

IDZ019>023-231200-
SOUTHEAST IDAHO


CITY           SKY/WX    TMP DP  RH WIND       PRES   REMARKS
IDAHO FALLS    CLOUDY    29  28  96 CALM      29.59F
POCATELLO      CLOUDY    31  28  89 CALM      29.57F
REXBURG        CLOUDY    28  27  96 NE5       29.61F WCI  23
$$

IDZ006-010-011-018-031-032-231200-
CENTRAL IDAHO MOUNTAINS


CITY           SKY/WX    TMP DP  RH WIND       PRES   REMARKS
MCCALL         CLOUDY    11   7  84 SE5       29.56R WCI   3
HAILEY         CLOUDY    27  21  80 NW9       29.56F WCI  17
STANLEY          N/A     10   7  87 E3        29.57F
SALMON         CLOUDY     7 N/A N/A CALM      29.66R
CHALLIS        CLOUDY    13  13 100 S5        29.61F FOG     WCI   5
$$

IDZ002-004-006-007-026-231200-
NORTHERN IDAHO


CITY           SKY/WX    TMP DP  RH WIND       PRES   REMARKS
LEWISTON       CLEAR     30  27  88 E5        29.68S WCI  25
LOWELL           N/A     32  30  92 CALM      29.73R
COEUR D`ALENE  CLOUDY    33  32  96 CALM      29.66R
MULLAN PASS    CLOUDY    24  21  88 CALM      29.54R FOG
$$



USA.gov is the U.S. government's official web portal to all federal, state and local government web resources and services.